Location: Chaumontel
(49.1247°N, 2.4324°E)
Time: 04:45:46
(UTC+00:00)

COSMOS 2428 - Pass Details

Date: 08 August 2024
Orbit: 842 x 857 km, 70.9° (Epoch: 08 September)

Event Time Altitude Azimuth Distance (km) Brightness Sun altitude
Exits shadow 02:35:56 23° 201° (SSW) 1,728 3.8 -15.9°
Maximum altitude 02:39:36 82° 116° (ESE) 863 2.7 -15.5°
Drops below altitude 10° 02:45:20 10° 30° (NNE) 2,488 6.5 -14.8°
Sets 02:47:47 0° 30° (NNE) 3,431 7.5 -14.6°
